Wind_Speed
29 31 31 32 32 31 33 32 30 30 31 29 26 25 22 20 17 15 15 14 13 14 14 15 16 14 10 9 10 11 12 12 11 11 12 11 11 12 13 13 15 15 16 16 15 16 17 17 17 16 16 18 17 18 20 21 24 24 22 22 18 12 16 21 20 20 20 17 12 10 10 8 7 11 13 12 12 10 9 10 11 10 9 9 9
26 29 29 31 31 31 32 31 29 30 31 30 27 25 23 20 18 16 15 14 14 14 14 15 14 12 11 10 9 9 11 13 11 10 11 11 10 11 12 13 15 15 15 15 15 15 16 15 17 16 15 17 17 18 19 19 21 23 22 20 15 11 15 20 20 19 19 17 14 14 13 10 7 9 12 12 12 9 7 8 9 9 8 8 9
20 26 27 28 28 30 31 28 28 30 30 29 27 24 22 20 19 17 16 15 15 14 14 16 15 12 11 11 11 9 9 11 12 10 9 10 10 10 11 12 14 15 14 14 14 14 15 15 16 15 14 18 19 17 18 18 19 22 21 16 11 10 14 17 17 17 18 16 15 17 15 11 9 8 9 10 9 7 5 5 5 6 7 8 8
14 22 24 25 24 25 27 27 28 30 28 26 25 22 22 21 20 18 17 17 16 14 15 18 16 14 13 13 12 10 8 10 13 11 10 11 10 10 10 10 11 12 12 12 12 13 13 14 15 14 13 18 19 18 18 18 19 22 19 14 11 11 14 16 14 14 16 16 16 17 16 12 10 9 8 9 10 8 7 6 5 6 6 7 8
11 18 22 24 24 23 25 27 28 29 27 25 24 22 21 21 21 20 19 18 16 15 18 18 15 13 12 11 11 11 11 13 14 12 12 11 11 11 11 9 9 10 10 10 9 10 11 12 14 14 14 18 19 17 17 18 21 21 15 12 13 14 14 14 12 10 12 16 17 17 16 13 12 12 11 11 12 12 12 11 10 9 7 7 8
16 20 22 24 26 26 26 28 28 28 27 26 25 23 21 21 21 21 20 19 17 17 18 16 13 12 11 11 14 16 16 16 14 12 11 11 10 11 11 11 11 11 11 10 8 8 10 12 13 14 15 19 19 16 15 16 19 19 13 11 14 15 13 12 10 9 11 14 18 19 18 17 16 14 13 13 14 15 15 15 15 14 12 11 10
19 22 25 27 29 28 28 28 29 29 28 27 25 23 23 21 22 22 20 19 18 18 17 14 12 14 14 14 17 19 18 18 17 15 14 12 11 11 11 12 12 12 12 11 11 10 9 10 13 14 15 18 19 17 15 13 15 17 14 13 15 15 14 12 10 12 13 12 15 20 19 18 18 17 14 14 16 19 19 19 19 18 16 16 14
19 23 28 30 30 30 28 27 29 29 29 27 25 24 24 22 21 21 19 19 20 19 17 14 14 15 15 15 17 18 17 17 18 18 16 16 16 14 11 10 11 13 15 14 13 13 11 9 11 14 16 19 20 19 16 12 12 15 14 12 16 16 15 14 12 13 15 11 11 17 19 17 18 18 17 16 18 21 21 22 22 20 20 20 17
19 25 29 30 31 32 30 28 28 29 29 27 25 24 24 23 22 21 19 21 23 20 18 17 16 15 16 17 17 17 15 14 16 18 17 18 19 17 14 13 14 16 18 15 13 13 10 8 9 12 15 19 21 21 18 13 12 14 11 9 14 18 17 15 14 14 15 11 8 12 14 12 13 17 19 19 19 18 17 18 17 16 17 21 21
18 24 28 29 30 31 32 31 30 29 28 27 25 24 25 24 23 22 21 22 23 21 19 18 16 15 16 16 16 16 16 15 15 17 17 16 18 18 16 15 16 17 17 15 12 11 8 7 8 10 11 14 18 20 19 15 12 13 11 8 12 17 17 17 15 14 14 13 10 10 10 9 10 13 15 16 16 16 14 14 14 13 13 16 19
16 21 26 28 29 29 30 31 33 31 29 27 26 25 26 25 24 23 22 23 23 23 22 19 17 17 17 16 14 14 15 16 15 16 15 13 15 17 17 15 14 13 13 12 11 10 9 8 9 9 9 10 13 16 16 16 14 13 12 10 11 14 15 15 14 13 13 13 12 12 12 11 11 12 13 13 15 16 16 16 17 17 17 18 19
15 21 25 26 26 27 28 30 33 33 31 28 27 27 27 25 24 24 24 24 24 25 23 19 17 18 17 16 15 14 14 15 16 16 14 12 14 15 15 15 13 11 11 11 11 11 11 11 11 11 11 9 10 12 12 13 13 12 12 12 10 11 12 13 13 13 13 13 13 13 13 13 13 13 13 13 15 16 18 18 19 19 20 22 24
12 19 24 25 25 26 29 30 30 32 32 29 27 27 27 25 25 26 26 25 26 26 23 20 18 17 16 14 13 13 14 14 16 17 16 15 15 15 15 14 12 10 11 12 13 13 13 14 14 13 11 11 10 11 12 12 11 12 12 12 11 10 10 11 12 13 13 14 15 15 14 14 14 14 14 15 15 16 16 17 18 19 20 22 24
9 14 20 22 21 23 28 29 27 29 31 29 27 27 27 27 27 28 27 26 26 26 23 20 18 16 16 13 10 11 13 14 15 18 18 17 16 15 15 14 11 10 11 12 15 17 15 14 14 12 11 11 11 11 12 12 13 13 13 14 14 12 12 11 12 13 14 15 16 17 16 16 16 17 17 18 18 19 19 20 20 21 23 24 25
2 6 13 16 17 18 24 28 27 28 30 30 29 29 29 30 30 29 29 27 26 24 22 20 17 16 15 12 9 10 13 13 14 17 19 19 16 15 15 14 12 12 13 13 17 19 16 15 14 13 11 11 10 11 11 12 12 12 12 12 13 14 15 15 15 16 17 18 19 20 20 20 20 20 21 21 22 23 24 26 26 27 29 30 31
14 10 8 10 17 20 22 26 28 29 30 31 32 32 33 33 33 31 30 28 26 23 20 18 17 15 14 12 10 12 13 13 14 15 17 19 18 15 15 14 13 13 13 13 15 17 15 14 13 13 12 11 10 11 12 12 11 12 11 11 11 12 14 15 16 17 18 19 20 21 22 23 23 23 24 24 25 25 26 27 27 28 30 33 34
21 19 19 16 18 22 23 26 29 31 33 34 34 34 34 34 33 32 30 28 25 22 19 17 16 15 14 13 12 12 13 14 14 14 15 16 17 17 17 16 14 13 13 12 12 12 12 12 11 12 12 11 11 12 13 12 12 12 12 12 12 12 13 14 15 16 17 18 19 20 21 22 23 24 24 24 24 25 27 29 28 28 31 33 36
25 24 24 23 20 20 22 24 27 30 33 33 33 33 32 31 30 29 28 26 22 18 17 16 16 15 15 15 13 13 13 14 14 15 15 15 15 16 16 16 14 14 14 13 11 11 12 11 11 11 11 10 11 11 11 12 12 12 12 12 13 13 14 15 16 17 18 19 20 21 22 23 24 25 25 25 26 27 29 30 29 29 31 33 35
27 27 25 23 22 20 19 21 23 27 30 29 29 29 28 27 26 24 22 20 17 15 13 13 14 15 15 15 15 14 14 15 15 16 16 16 15 15 15 15 15 15 16 15 13 12 12 12 11 11 10 10 10 10 10 10 10 11 12 13 13 14 15 16 17 18 18 19 19 21 22 23 24 26 26 27 28 28 30 31 30 29 30 32 33
27 27 25 21 19 19 18 19 21 24 24 22 21 21 19 19 19 18 16 14 12 12 11 10 12 14 14 14 15 15 14 15 16 17 18 18 17 16 16 16 16 16 17 16 15 13 12 12 11 10 10 9 9 9 9 10 11 11 12 13 14 15 16 17 18 19 20 21 22 23 24 25 26 27 28 29 29 29 29 30 29 27 26 28 29
23 24 24 23 21 20 18 17 19 20 19 15 14 14 13 12 13 12 11 10 9 10 10 10 12 13 13 13 13 14 14 14 15 16 17 18 18 16 16 15 15 15 15 14 13 11 10 9 9 9 9 9 9 10 10 11 12 13 14 15 15 16 17 18 19 20 21 22 23 23 24 25 24 25 25 25 25 25 25 26 26 25 24 26 28
21 20 21 22 21 21 20 18 18 19 16 13 12 13 13 13 12 12 10 9 9 9 9 9 10 11 11 10 10 11 12 11 12 13 13 15 16 15 15 14 12 12 12 11 10 9 9 9 9 9 10 11 12 13 14 14 14 14 14 14 14 14 15 16 17 18 18 19 19 19 19 19 19 18 17 17 16 17 18 19 20 21 22 23 24
24 23 22 21 21 20 20 19 17 17 16 15 15 17 17 15 15 15 15 14 13 12 10 8 8 8 8 8 8 8 9 9 9 9 10 10 11 13 14 13 13 12 11 10 10 10 10 11 11 11 12 12 12 12 11 11 11 11 10 10 10 10 11 12 13 13 13 13 12 12 11 12 13 12 12 12 13 14 16 16 16 17 19 20 21
26 27 25 24 22 20 19 18 16 14 13 12 13 16 18 18 18 18 18 17 15 14 13 11 8 7 7 7 8 8 8 8 7 6 6 6 7 8 10 11 11 10 8 7 7 8 8 9 9 8 8 7 6 5 4 4 3 4 5 5 5 6 7 8 9 10 10 9 8 8 9 10 11 12 12 12 14 16 18 19 19 19 20 22 23
22 24 25 24 23 21 19 18 17 15 14 12 11 12 14 15 15 15 15 16 16 16 14 12 9 8 6 4 5 7 8 8 7 7 5 3 3 4 5 5 5 5 4 3 3 4 4 5 5 5 3 1 1 2 2 2 1 1 1 2 3 4 5 6 7 7 7 7 7 8 10 11 12 13 14 15 16 19 21 23 24 24 24 25 25
18 20 22 21 21 21 20 19 18 17 15 14 13 12 11 12 12 12 12 13 13 13 13 11 9 6 4 2 4 6 8 8 8 8 7 4 3 2 2 2 3 2 2 2 2 2 3 4 4 4 4 5 5 4 4 3 2 2 2 3 4 5 5 6 6 6 6 7 8 10 12 14 15 16 18 20 21 22 24 26 26 26 27 28 28
17 16 17 18 17 18 19 18 19 18 17 15 14 13 12 11 11 10 10 9 8 8 8 8 6 4 2 1 3 5 6 7 8 7 7 5 5 4 3 3 4 4 5 5 5 6 7 8 8 7 6 6 5 4 3 2 2 3 3 5 7 8 7 7 8 9 10 11 12 13 15 17 19 20 22 23 24 25 26 27 27 28 27 28 29
17 15 14 14 14 15 16 16 17 17 17 16 15 14 12 10 9 7 7 7 6 6 5 6 6 5 3 2 1 3 5 6 6 6 5 4 5 5 5 5 6 6 6 7 7 8 8 8 7 7 6 5 4 4 3 3 3 5 6 7 9 9 9 9 10 11 13 14 15 17 19 20 22 23 23 24 24 25 26 27 28 27 26 25 26
15 15 14 13 14 13 13 14 14 14 14 14 16 16 14 10 7 6 6 7 7 7 7 7 6 5 4 3 2 1 2 4 4 4 3 4 5 6 7 7 7 7 7 7 7 7 6 5 4 4 3 3 2 3 3 4 5 6 7 8 9 10 11 11 12 13 15 16 18 20 21 22 23 24 25 25 25 25 26 27 28 28 25 24 24
11 13 13 12 12 12 11 11 12 12 12 11 12 15 16 14 11 8 7 6 6 5 6 6 5 4 3 3 3 2 1 1 2 2 5 6 7 8 9 10 10 10 9 8 8 7 6 4 3 1 0 1 2 4 5 6 7 7 7 7 8 9 10 11 12 13 15 17 18 20 22 23 24 24 25 25 26 26 27 28 29 29 28 25 24
8 9 10 9 9 10 11 9 9 10 10 9 9 12 15 16 15 13 11 8 6 4 3 2 2 1 1 1 2 2 2 2 3 5 7 9 10 11 12 12 12 12 11 9 8 7 6 5 3 2 3 4 5 6 8 8 8 8 7 8 9 10 10 11 12 13 15 16 17 18 19 20 21 22 22 23 24 25 25 25 25 25 23 21 21
7 6 8 9 8 8 8 8 7 9 9 7 7 10 13 13 13 13 13 13 12 10 8 6 5 4 4 4 5 5 5 5 6 6 8 9 10 11 12 12 12 11 10 7 6 5 4 3 3 3 4 6 6 7 8 8 7 8 8 8 10 11 11 12 13 14 15 16 16 16 16 17 18 19 19 21 22 22 22 22 21 21 20 18 17
10 7 7 10 10 7 5 6 5 7 10 10 7 7 10 10 10 10 10 10 12 12 11 9 9 8 7 6 5 5 5 5 5 6 7 8 8 9 11 11 9 8 6 4 3 2 2 1 2 3 4 6 7 7 7 7 7 8 9 10 11 12 13 14 14 14 14 14 15 15 15 16 17 18 18 19 19 19 19 19 19 19 19 18 16
9 7 6 9 11 9 6 4 3 2 6 11 10 7 8 8 6 7 8 8 9 11 12 11 10 10 9 8 7 6 5 4 4 5 6 6 6 6 6 6 5 4 3 2 2 1 1 3 4 4 5 6 7 7 7 8 7 8 8 10 11 12 13 13 13 13 13 13 14 14 14 15 15 16 17 17 17 17 17 18 19 19 19 18 17
6 4 4 6 10 10 8 6 5 2 1 6 8 7 8 8 6 6 8 7 6 8 10 10 10 10 9 8 7 7 6 5 4 4 5 6 5 4 4 4 4 3 2 3 3 2 3 4 4 4 5 6 6 7 9 10 9 8 8 9 10 11 12 12 12 12 12 12 13 13 13 14 14 15 17 18 18 18 19 19 20 20 20 18 17
3 2 2 3 5 7 7 7 7 3 3 6 7 6 6 7 7 6 6 5 6 8 9 7 8 9 10 9 7 5 4 4 3 4 6 7 7 7 7 6 5 4 4 3 4 5 5 4 3 5 5 5 5 6 8 9 8 7 8 10 11 11 11 11 12 12 12 13 13 14 15 16 17 17 19 20 20 19 19 19 19 18 17 15 12
2 2 4 4 2 4 6 7 8 6 4 6 6 5 4 5 6 6 4 4 6 7 5 4 6 8 10 9 5 3 3 3 2 3 7 8 9 8 8 8 7 6 6 5 6 6 5 2 4 4 3 3 4 5 6 7 6 7 9 10 10 10 12 12 13 14 14 15 17 18 18 19 20 20 20 19 18 17 16 15 14 14 13 11 9
4 3 4 3 2 5 6 7 7 6 5 4 3 2 2 4 7 7 5 4 5 5 4 4 5 7 9 7 3 1 2 4 4 1 3 7 9 8 8 8 8 7 7 6 4 3 1 3 5 4 3 3 4 5 6 6 6 7 9 10 11 11 13 14 15 16 18 19 20 20 20 20 20 19 18 17 16 16 15 13 12 11 10 9 7
5 2 3 2 3 5 5 5 4 4 5 5 3 0 1 2 6 7 6 4 3 2 2 2 3 5 7 6 1 2 1 3 5 6 3 3 7 8 7 6 4 3 2 1 0 1 3 5 5 5 5 5 6 7 7 8 8 9 10 11 12 12 13 14 16 18 20 21 21 20 20 20 20 19 18 16 16 15 15 14 13 11 10 8 7
5 1 4 6 6 5 4 4 3 3 3 2 1 0 2 2 3 4 4 4 2 1 1 3 4 5 7 4 1 3 2 2 4 6 6 2 4 4 3 2 2 3 4 3 2 3 5 7 8 8 8 8 8 8 8 8 9 10 10 10 10 12 14 14 15 17 18 19 19 19 18 19 20 19 18 17 17 16 16 15 13 12 10 9 8
8 3 5 7 6 5 3 2 1 2 3 3 3 4 4 4 6 7 6 4 1 2 3 4 5 7 6 2 3 4 1 2 4 6 5 4 6 6 6 6 6 6 7 6 5 6 8 9 9 9 9 9 8 8 8 9 9 10 10 9 9 11 12 12 13 14 15 16 17 17 17 18 19 19 19 19 19 18 17 16 14 13 11 10 10
10 4 6 6 4 4 3 1 2 3 3 4 5 6 7 7 7 7 7 4 1 1 3 3 5 7 5 3 4 3 2 2 5 5 3 6 9 9 10 11 11 10 10 9 8 9 10 10 9 9 8 8 8 8 8 8 9 9 9 9 8 8 8 8 9 11 11 12 12 14 15 16 17 17 18 19 19 18 17 16 15 14 12 11 11
10 6 8 7 4 4 1 3 4 3 2 3 4 5 7 7 6 5 5 2 2 2 2 2 4 6 5 2 0 2 2 1 0 3 7 11 12 12 12 13 13 13 13 12 11 11 10 9 8 7 7 8 9 8 7 7 7 7 8 9 8 7 6 5 5 6 8 9 9 10 12 13 14 15 15 16 17 18 17 16 16 16 15 14 13
10 5 8 7 4 5 2 4 3 3 3 4 5 5 6 6 5 5 5 1 3 2 2 2 3 5 6 4 4 4 2 4 7 10 11 12 12 12 12 13 13 12 12 12 11 10 9 8 7 7 7 8 9 8 7 7 7 7 8 9 9 8 6 5 4 4 5 7 8 9 10 11 12 13 13 14 15 16 16 16 16 16 16 16 15
6 3 9 6 5 5 1 3 3 5 5 6 7 7 6 5 6 6 2 3 5 3 1 4 5 6 6 5 4 4 4 6 9 10 10 11 11 10 10 10 11 11 11 10 9 9 9 8 7 7 7 7 6 6 6 7 8 9 9 9 9 8 7 6 3 3 4 6 7 9 10 10 10 11 12 12 13 13 13 13 14 14 15 16 16
5 5 8 4 4 4 2 5 5 4 5 6 8 9 8 6 5 4 2 5 4 2 2 4 6 6 4 2 2 3 4 4 7 9 9 9 9 8 7 7 9 9 9 8 8 7 7 7 6 6 5 4 4 6 7 8 8 8 8 8 8 8 8 7 5 3 4 6 7 8 9 9 8 8 9 9 9 9 10 11 12 12 12 13 13
6 4 2 2 2 3 4 6 6 4 6 7 7 8 8 4 2 3 2 4 3 0 2 3 6 6 3 2 3 2 1 3 5 7 7 7 7 7 5 5 6 7 7 7 6 5 5 5 4 3 3 3 4 6 6 7 7 7 7 7 7 7 8 8 7 6 5 6 6 8 8 8 7 6 7 8 7 7 9 10 11 12 12 11 10
2 3 3 1 3 3 4 5 6 6 7 7 6 8 8 3 1 3 3 4 4 2 2 1 3 5 5 3 4 4 4 6 8 7 6 6 7 7 6 5 4 4 5 6 5 4 4 4 3 3 3 3 3 4 5 5 6 6 6 6 6 7 7 6 6 6 5 5 6 7 7 8 8 7 8 8 8 6 6 7 8 9 10 10 10
2 1 3 3 0 1 2 5 6 7 7 7 7 8 8 5 1 1 2 4 4 2 2 1 1 4 4 2 1 4 7 9 9 7 5 5 6 7 7 8 6 3 2 4 4 4 4 4 4 5 5 3 2 3 4 4 5 5 5 5 6 6 5 5 5 5 5 5 6 6 6 7 7 7 8 8 7 6 7 8 7 6 7 9 10
1 5 5 3 3 3 3 5 7 7 7 7 7 8 7 5 3 2 4 5 5 4 2 2 2 3 4 1 3 4 5 6 6 3 2 3 4 6 8 10 7 3 1 1 3 3 4 6 6 7 6 4 4 4 4 5 5 5 6 6 6 6 5 5 4 4 4 4 4 5 5 5 5 4 5 5 4 5 7 9 8 7 6 7 8
3 8 6 4 4 5 6 5 5 7 8 8 8 8 6 4 4 3 3 6 7 6 4 4 3 3 3 2 2 3 1 1 2 2 5 5 5 6 8 10 7 3 1 1 2 2 4 6 7 7 6 5 5 6 6 6 7 7 6 7 6 6 6 5 4 4 4 4 4 5 6 6 6 6 6 5 5 5 5 6 7 8 6 4 5
Wind_Direction
228 215 201 190 182 177 175 175 172 169 170 172 171 172 172 169 165 159 154 154 153 153 153 153 162 169 163 153 150 151 149 148 153 153 154 163 162 162 173 181 176 174 183 190 187 187 194 199 202 203 200 197 192 188 185 184 186 187 188 192 196 210 217 206 191 183 192 210 223 223 226 239 231 213 211 212 211 210 209 210 214 211 208 217 224
233 217 203 193 186 181 178 175 173 171 173 175 175 174 172 165 162 158 150 147 146 145 144 141 141 141 135 132 137 146 149 150 153 154 154 157 162 166 167 168 170 171 177 182 183 186 191 196 199 201 201 197 191 187 186 187 188 190 192 194 201 225 222 207 197 187 188 204 220 219 218 231 234 216 214 218 216 213 215 219 223 222 218 226 237
225 206 198 194 187 183 181 178 177 176 176 178 178 174 170 164 159 155 148 145 143 142 144 140 134 135 140 142 143 147 152 155 157 160 159 157 159 166 166 162 163 167 172 175 177 182 186 189 192 195 195 192 190 188 187 189 188 186 188 193 203 220 213 204 202 199 193 198 210 215 216 220 224 221 218 214 211 216 227 231 238 245 243 237 238
211 192 195 196 189 184 184 181 178 178 179 180 180 174 168 163 159 153 148 145 142 141 141 138 140 152 159 160 163 168 164 152 151 153 155 158 160 159 159 158 155 157 163 166 169 176 182 187 189 193 193 188 186 187 188 190 187 184 186 190 196 206 203 198 204 210 206 202 206 215 221 221 223 231 227 214 217 233 243 250 270 279 268 242 230
192 194 199 200 197 191 187 184 180 179 181 182 180 175 169 164 158 153 151 148 143 140 140 141 150 161 160 162 172 168 146 132 132 132 134 143 152 156 159 161 161 160 155 152 164 180 186 188 191 193 189 184 184 186 189 192 190 188 194 203 205 210 204 195 199 216 223 217 210 213 223 226 230 240 242 232 229 233 238 249 266 275 273 258 240
183 198 204 203 201 195 189 187 183 181 183 184 181 175 171 166 158 154 154 150 144 142 141 141 152 159 147 141 148 146 137 135 137 140 142 141 139 144 153 155 154 158 153 143 147 171 183 189 192 191 187 184 185 184 184 189 191 194 206 215 208 205 198 191 194 213 230 225 212 212 221 225 228 238 245 244 239 237 239 246 255 259 260 264 264
190 196 200 201 202 198 192 188 184 182 184 185 182 176 170 165 159 156 154 149 141 137 135 133 143 158 157 145 142 144 146 149 151 153 157 157 148 140 145 152 156 164 165 153 142 144 155 175 189 192 190 188 186 182 181 187 193 202 218 219 204 196 194 194 195 207 221 222 213 216 220 222 229 236 243 248 246 245 246 247 252 258 261 266 273
193 192 195 198 201 202 199 191 185 185 186 185 181 175 169 163 160 158 154 147 140 137 143 152 157 161 165 162 154 152 153 153 155 156 154 155 156 152 147 151 159 168 169 160 148 142 141 153 175 183 186 188 187 185 186 192 197 207 222 218 202 197 196 193 186 191 205 212 216 222 222 225 231 232 232 238 240 244 249 251 258 267 271 274 276
199 195 197 199 200 203 202 198 189 185 185 186 181 173 166 161 160 158 153 148 144 145 156 166 166 160 160 162 160 157 155 153 158 162 158 152 155 158 153 141 136 147 156 154 145 143 145 146 154 162 172 184 192 190 190 196 199 203 210 196 193 201 199 188 178 179 190 196 204 218 224 230 231 227 227 232 238 244 248 248 256 271 277 274 271
217 210 208 206 205 202 198 197 194 187 183 183 179 170 162 160 162 161 154 149 149 154 162 164 166 167 165 161 159 158 158 155 157 166 169 164 162 164 162 151 141 144 151 151 146 146 149 147 145 148 159 180 196 198 199 204 206 206 208 184 179 194 196 190 187 186 193 198 196 205 220 228 225 225 231 238 246 254 252 247 255 270 272 264 259
231 225 219 214 211 205 196 194 195 190 182 176 172 166 162 162 165 162 154 152 156 162 167 167 169 177 181 177 169 165 162 159 158 163 169 172 172 171 171 169 163 156 155 158 159 155 154 156 157 161 167 178 195 202 206 212 214 215 221 210 184 185 190 192 195 199 205 209 208 212 223 230 230 233 238 242 246 251 254 257 265 272 271 265 263
235 228 223 220 218 209 198 195 196 188 179 175 172 168 166 166 166 161 156 157 162 166 171 173 174 182 190 190 186 182 174 167 164 162 160 161 165 164 165 167 165 161 161 168 170 163 162 169 171 173 180 186 194 201 206 213 220 225 229 229 216 204 202 204 207 211 217 220 221 224 231 238 241 242 245 244 244 247 252 258 264 267 269 271 273
254 228 219 222 225 214 200 196 192 182 176 176 173 168 167 166 164 162 161 163 166 169 174 179 180 185 189 189 190 193 189 179 171 165 159 156 156 154 156 162 161 162 170 174 173 171 170 174 176 176 182 192 199 205 207 210 218 223 224 227 228 221 218 218 219 223 229 231 233 237 243 248 249 249 252 253 253 254 257 259 261 263 264 268 272
267 230 218 223 227 215 203 200 191 178 176 177 174 171 171 167 163 164 165 166 168 170 175 180 182 184 183 182 186 189 191 189 180 173 168 162 157 156 160 168 166 158 160 162 162 166 170 175 180 179 177 184 192 198 204 210 215 219 221 224 226 225 225 225 226 229 234 238 240 242 247 253 254 255 258 261 263 265 267 267 268 268 269 270 271
51 198 204 215 217 203 197 199 194 179 173 175 176 176 173 168 165 167 168 167 169 171 175 180 181 180 180 184 184 175 176 181 181 179 178 175 170 164 161 167 169 160 155 153 152 157 162 168 176 177 173 177 186 191 197 205 212 216 220 223 227 231 233 234 235 237 238 241 245 246 247 251 252 254 258 262 265 268 270 271 272 272 272 272 272
56 70 104 154 177 176 175 183 187 180 173 174 174 171 169 169 169 170 170 169 171 172 174 179 181 181 182 181 171 159 157 163 170 175 181 183 184 177 166 165 169 166 162 161 158 159 162 167 174 177 175 177 186 194 200 204 208 213 216 219 224 232 236 238 240 242 243 245 248 250 251 252 254 256 258 260 263 266 269 271 273 274 274 274 272
56 53 55 80 128 147 148 155 167 171 169 168 169 166 163 164 166 170 173 172 172 173 174 175 176 178 177 169 161 156 151 151 157 162 168 175 179 177 173 172 173 170 167 168 168 170 173 177 180 182 181 183 187 195 203 208 212 217 221 226 230 233 237 240 241 242 245 248 250 253 256 258 261 264 266 268 270 273 275 277 279 280 279 277 276
57 60 53 54 78 103 117 128 144 157 157 154 158 161 160 158 160 166 172 171 171 173 175 175 173 173 173 169 166 166 160 153 154 157 158 163 171 176 180 180 176 171 169 168 169 174 182 187 190 190 191 193 194 199 207 214 222 231 236 241 245 246 247 249 249 249 250 251 254 257 259 261 264 266 268 270 271 273 274 276 279 281 280 280 282
53 59 58 52 53 62 75 91 113 137 146 143 144 151 154 154 155 160 166 170 174 178 178 177 175 173 175 175 173 171 169 165 163 163 161 160 165 174 181 183 176 170 170 172 172 177 186 193 200 204 207 211 214 221 227 233 239 245 249 253 257 259 262 264 265 265 264 264 264 263 263 264 265 265 266 267 267 268 270 272 275 279 281 282 284
54 57 60 58 53 52 55 62 79 105 123 127 129 135 140 144 149 156 164 170 176 176 172 175 177 172 171 174 174 172 173 172 171 172 171 169 166 166 172 177 176 174 177 180 181 185 193 202 211 219 227 234 241 244 246 250 254 258 263 268 271 274 276 277 277 277 277 276 275 273 272 271 270 270 270 270 270 271 272 275 277 279 281 282 282
55 57 59 61 60 60 61 59 61 73 88 97 106 114 119 126 137 146 151 155 163 167 167 171 172 164 159 164 169 169 169 172 173 175 178 180 178 174 174 175 175 177 181 184 189 196 207 217 227 240 251 258 262 262 264 267 271 275 278 280 283 285 286 286 285 285 284 284 282 282 282 281 280 280 279 279 280 278 276 276 276 276 276 276 278
54 58 60 62 63 62 63 65 67 70 79 90 98 102 105 111 119 123 124 127 138 147 152 159 161 156 151 152 159 164 166 170 175 179 183 188 190 191 191 187 184 186 190 194 203 215 228 239 247 254 261 268 272 274 277 281 283 285 287 288 290 291 290 290 289 288 289 290 290 291 291 289 288 288 288 289 288 281 276 273 270 269 269 269 272
48 52 55 58 62 63 63 65 71 77 83 92 98 97 96 98 103 107 107 106 108 109 108 115 133 144 145 141 141 149 157 165 175 182 187 192 196 200 204 205 208 212 213 214 220 231 243 255 263 266 268 272 277 281 283 285 286 288 291 293 295 296 295 295 295 297 300 302 303 304 300 294 292 293 293 291 288 284 279 276 277 278 278 276 274
46 47 47 48 52 58 64 67 71 75 79 85 95 99 98 97 97 99 100 98 96 94 90 87 94 108 118 126 131 130 130 141 151 153 157 172 185 195 204 211 219 225 228 225 225 228 235 245 256 266 273 279 286 292 295 295 291 287 287 290 294 297 300 305 310 316 320 320 321 320 313 306 306 305 303 299 295 293 288 283 282 284 285 287 288
50 49 47 44 44 46 51 59 65 70 74 79 90 102 107 107 103 102 105 104 98 95 94 87 75 72 78 95 110 105 100 104 107 101 98 116 156 182 196 203 211 220 223 218 215 216 218 220 226 238 249 234 112 107 108 120 143 180 215 245 271 282 294 306 314 319 321 319 316 311 305 303 304 303 300 298 295 292 288 284 281 279 279 283 287
50 56 52 47 44 42 41 43 47 51 56 62 69 84 100 108 106 104 108 114 114 110 109 105 97 92 86 50 47 63 67 69 73 69 61 64 83 101 136 150 157 167 165 147 128 113 109 117 132 148 153 149 151 154 155 163 186 219 254 279 292 300 311 320 321 317 312 307 302 301 300 298 295 291 289 288 289 289 288 287 286 284 284 283 285
45 58 59 53 48 45 43 44 45 46 46 45 45 50 58 69 78 83 88 98 113 120 121 127 132 138 157 342 12 32 42 47 51 47 39 47 67 78 90 101 108 112 110 107 108 107 107 113 122 133 145 153 164 173 176 191 236 269 289 297 300 304 306 306 302 297 295 294 292 293 293 292 290 289 288 289 292 293 293 293 293 292 292 290 289
47 57 62 58 54 50 47 45 46 50 52 53 53 51 52 57 67 81 93 98 111 130 149 163 171 180 200 229 304 6 25 32 31 26 25 42 68 87 99 100 101 103 102 102 106 109 114 124 132 137 143 149 160 178 194 219 251 271 280 283 286 289 288 282 278 278 281 283 285 287 288 290 292 295 295 296 298 299 299 299 298 297 296 294 293
59 63 63 62 58 54 51 46 45 47 48 52 57 59 64 75 91 116 138 142 144 154 169 178 176 173 178 187 196 199 29 14 2 4 34 67 83 90 96 98 98 100 100 102 105 109 112 122 134 145 157 171 199 229 250 268 279 286 288 287 287 289 289 288 287 286 287 289 290 292 294 296 298 300 302 303 303 303 304 303 302 301 299 298 296
65 72 73 73 66 59 55 50 46 47 43 43 52 59 64 73 85 101 127 148 160 171 185 198 204 209 219 225 222 219 231 7 12 49 76 86 90 89 89 91 93 97 100 101 99 95 89 88 99 129 242 314 323 330 332 329 327 324 318 313 306 301 300 300 299 297 297 297 297 299 301 303 306 308 310 311 311 311 310 308 306 305 302 299 296
50 68 67 67 69 66 63 57 48 44 40 37 50 60 61 65 72 78 84 89 96 110 135 164 197 217 212 191 178 152 125 107 96 89 87 89 89 88 87 91 97 102 104 102 98 92 83 75 68 36 4 357 356 355 348 342 340 336 328 324 321 317 315 315 313 312 312 311 312 312 313 316 318 319 320 319 319 319 319 319 319 318 314 307 299
41 71 59 56 69 76 76 78 71 56 50 50 59 60 56 56 63 70 73 75 77 78 81 82 82 83 94 105 110 110 107 103 99 97 97 97 94 90 90 97 107 113 113 114 110 97 76 49 32 15 359 354 353 350 343 340 341 337 332 331 331 329 331 333 333 332 331 331 333 333 333 333 333 331 331 330 329 331 333 336 339 340 336 326 313
43 67 65 59 65 69 74 92 92 67 62 70 74 57 45 46 55 61 65 72 74 71 71 73 75 76 82 90 96 98 94 93 99 106 108 106 101 99 101 107 115 121 127 138 135 101 66 350 339 341 334 333 335 334 334 337 337 334 337 342 342 346 352 355 353 352 352 352 352 350 348 346 344 343 343 342 340 343 348 350 352 352 347 340 329
37 56 65 54 50 47 49 63 81 78 76 82 85 65 37 34 49 61 63 71 73 62 54 54 56 62 72 83 89 92 91 96 112 122 122 118 114 117 123 130 138 143 159 198 211 193 271 294 308 318 321 329 337 340 347 356 355 348 348 353 357 4 9 7 2 3 5 2 358 354 351 349 346 346 348 349 349 355 -0 0 358 355 349 342 337
30 39 51 43 44 47 41 30 23 356 124 107 100 81 51 48 68 78 68 67 67 52 42 40 42 47 57 71 81 86 90 96 118 144 153 152 154 167 183 186 181 182 212 253 265 279 292 302 318 335 342 349 353 355 3 14 19 12 8 12 17 18 17 12 8 10 8 2 357 355 353 352 353 354 356 358 1 5 6 4 359 352 345 341 341
24 12 357 4 34 47 39 27 28 37 157 141 111 86 66 66 75 73 57 57 69 60 46 41 44 41 37 41 51 61 68 79 109 152 173 179 183 194 206 208 203 206 223 249 271 285 294 313 352 2 359 -0 3 7 16 28 35 30 25 26 27 25 24 22 19 16 11 7 6 7 8 9 11 11 9 8 8 7 4 358 353 347 341 338 340
327 342 344 337 2 59 55 47 45 56 119 135 107 79 74 78 74 68 58 69 88 86 68 48 42 32 21 19 25 23 356 2 57 147 177 189 195 201 205 208 212 220 229 242 260 273 284 337 26 23 12 14 21 28 37 43 43 38 37 39 40 37 35 33 28 24 23 22 22 23 22 21 19 17 15 13 9 5 -0 355 351 348 343 337 335
303 338 356 355 64 94 73 54 48 53 70 97 89 46 47 70 73 79 84 81 92 104 95 61 36 21 15 16 29 71 342 336 343 3 188 198 203 208 210 212 219 229 238 248 255 264 320 33 45 55 63 52 46 55 63 60 51 49 52 53 52 46 41 38 36 36 36 35 34 34 32 29 25 22 19 16 13 8 3 357 353 352 352 351 355
295 338 41 51 113 110 76 48 51 58 59 73 83 32 300 34 58 72 82 75 71 100 85 33 355 352 4 12 38 200 276 321 343 359 4 191 193 201 210 217 223 225 224 230 261 46 49 55 67 80 84 79 74 72 69 60 53 51 53 51 47 45 46 47 46 43 40 37 37 38 37 33 31 28 23 20 18 15 11 6 1 360 3 5 8
295 318 87 92 105 106 83 64 57 19 8 39 97 18 291 292 342 15 34 45 54 62 348 344 336 341 358 16 162 204 257 337 0 1 4 50 131 144 151 143 96 76 89 97 83 60 68 78 84 84 84 82 77 68 63 61 56 51 49 45 41 43 50 53 51 48 43 37 36 38 38 36 35 33 30 26 24 21 19 16 11 7 8 9 6
306 280 124 109 94 82 81 98 92 358 348 329 304 312 312 298 299 309 312 315 15 44 2 351 355 358 6 45 175 201 249 4 346 339 356 61 92 90 86 85 76 70 78 88 84 77 82 87 84 79 78 76 68 59 59 63 62 58 53 48 44 46 49 49 45 43 43 41 38 39 40 38 36 35 33 31 30 28 27 25 22 18 15 14 12
306 261 161 129 80 66 103 156 308 333 345 338 322 313 311 307 302 302 299 285 236 55 356 347 7 16 28 108 176 215 262 306 308 316 22 83 89 86 80 76 73 73 75 78 78 78 80 79 75 71 71 70 69 68 67 68 66 59 50 47 49 52 54 51 41 34 33 36 40 42 42 38 34 33 32 33 33 32 30 29 30 30 27 24 20
300 250 172 142 66 39 147 253 309 330 328 327 320 306 304 305 301 312 325 311 165 125 37 36 38 24 23 54 105 296 296 292 0 92 95 91 88 87 84 80 77 77 78 78 78 78 75 71 68 69 72 75 76 77 79 82 79 63 44 40 44 47 58 76 73 45 27 23 28 36 39 36 30 28 30 33 35 36 34 32 31 32 33 31 28
290 244 167 143 47 10 286 244 288 315 312 329 331 309 297 297 306 329 346 37 146 126 35 18 12 359 351 345 338 338 9 89 96 91 89 88 85 85 85 84 79 75 75 76 76 76 74 68 63 65 73 77 75 72 71 75 73 59 42 36 38 42 54 76 84 57 30 18 15 19 25 26 24 22 25 31 36 35 32 30 30 31 29 28 27
297 191 150 128 32 12 268 244 311 322 319 340 351 338 316 313 328 341 3 145 155 158 280 299 309 317 317 312 319 346 37 94 108 99 86 79 75 72 75 81 77 70 68 68 67 68 71 68 61 64 75 82 76 69 65 62 56 47 35 30 33 42 54 59 57 38 22 17 17 19 18 18 17 17 20 30 37 33 24 23 29 32 28 23 24
7 113 140 123 39 30 318 300 316 323 322 334 348 348 338 332 342 2 110 154 151 158 252 298 326 329 316 318 4 22 32 67 103 107 94 78 64 55 57 73 77 72 66 64 63 65 67 68 67 69 76 76 62 53 52 49 42 35 30 31 38 48 56 57 60 54 29 20 25 27 22 19 20 16 12 19 30 30 22 22 29 32 28 21 21
15 50 115 180 142 87 354 312 283 283 324 334 340 349 348 343 17 60 113 154 147 144 269 315 356 2 7 51 76 79 26 42 71 89 89 73 55 41 32 46 66 69 66 64 66 66 64 68 72 70 62 53 40 34 34 33 29 29 35 40 44 51 57 61 63 60 43 30 31 33 27 23 24 21 14 15 24 31 32 31 29 27 24 21 20
330 9 25 62 163 123 14 322 276 280 320 330 333 347 353 351 104 93 112 164 182 205 229 256 8 10 8 27 45 48 55 63 68 71 69 57 46 35 17 7 20 43 52 58 62 61 57 58 52 40 46 51 33 15 18 26 33 39 44 45 44 47 54 58 58 52 41 30 29 29 24 19 18 18 20 23 29 35 37 33 25 20 20 20 17
238 310 15 22 103 123 7 334 306 296 302 309 324 346 359 0 356 141 153 178 192 200 201 205 334 351 346 343 35 56 57 60 63 64 53 36 35 30 12 357 349 346 19 46 57 59 54 50 42 36 40 47 40 25 29 39 49 51 51 50 50 50 53 60 64 57 47 37 29 24 22 25 30 33 34 34 33 28 24 21 19 23 31 31 26
335 330 320 284 242 249 292 324 329 312 293 298 325 344 356 1 345 252 206 193 184 179 188 223 269 323 342 7 119 106 69 45 43 42 332 328 352 358 350 343 333 296 245 53 54 52 44 43 46 45 44 48 58 63 62 63 67 70 69 68 68 67 68 72 69 53 37 21 2 354 1 16 28 33 34 30 17 7 7 7 8 19 41 45 29
15 355 334 272 244 267 275 284 324 330 309 302 320 337 345 354 349 319 224 193 186 188 197 210 225 263 292 271 162 136 101 8 341 271 259 272 293 309 324 333 328 291 213 89 68 58 44 43 46 49 54 64 76 82 83 82 81 81 81 78 74 71 70 66 53 37 24 359 331 328 341 350 347 340 337 336 334 338 348 349 346 359 28 52 23
Height
1502 1503 1505 1504 1503 1502 1503 1504 1504 1504 1505 1505 1505 1506 1508 1511 1513 1516 1519 1521 1523 1525 1527 1528 1530 1532 1534 1535 1537 1538 1539 1540 1540 1541 1542 1542 1542 1543 1543 1544 1546 1547 1549 1550 1551 1552 1554 1555 1556 1558 1559 1560 1562 1563 1565 1566 1568 1569 1571 1572 1574 1575 1575 1576 1576 1577 1578 1580 1580 1581 1582 1583 1584 1585 1585 1586 1587 1588 1588 1589 1589 1589 1590 1590 1591
1500 1502 1505 1506 1505 1504 1505 1505 1505 1505 1506 1506 1505 1506 1507 1509 1512 1515 1517 1520 1522 1524 1526 1527 1529 1531 1533 1534 1536 1537 1539 1539 1540 1540 1541 1541 1541 1542 1543 1544 1545 1547 1548 1549 1550 1551 1552 1554 1555 1556 1558 1559 1561 1562 1564 1565 1567 1568 1570 1572 1573 1573 1574 1575 1575 1576 1577 1578 1579 1580 1581 1582 1583 1584 1584 1585 1586 1587 1587 1588 1588 1589 1589 1589 1590
1497 1500 1505 1507 1505 1505 1506 1507 1507 1507 1507 1507 1506 1506 1507 1508 1510 1513 1516 1518 1521 1523 1525 1527 1529 1530 1532 1534 1535 1537 1538 1539 1540 1540 1540 1541 1541 1542 1543 1544 1545 1546 1547 1548 1549 1550 1551 1552 1554 1555 1556 1558 1560 1562 1563 1565 1566 1568 1569 1571 1572 1572 1572 1574 1575 1575 1575 1577 1578 1579 1580 1581 1582 1583 1583 1584 1585 1586 1586 1587 1588 1588 1588 1588 1588
1497 1501 1505 1508 1507 1507 1507 1507 1508 1508 1508 1508 1508 1508 1508 1508 1509 1511 1514 1517 1520 1522 1524 1526 1528 1529 1531 1533 1535 1536 1538 1539 1540 1541 1541 1541 1541 1542 1542 1543 1544 1546 1547 1548 1549 1550 1551 1552 1553 1554 1556 1557 1559 1561 1563 1565 1566 1568 1569 1570 1571 1571 1572 1573 1574 1574 1574 1575 1576 1577 1578 1579 1581 1582 1583 1583 1584 1584 1585 1586 1586 1586 1586 1587 1587
1499 1502 1505 1507 1508 1507 1506 1507 1507 1508 1508 1508 1508 1508 1509 1509 1509 1510 1513 1516 1519 1522 1523 1525 1527 1529 1531 1532 1534 1536 1537 1539 1540 1541 1542 1542 1542 1542 1543 1543 1544 1545 1547 1548 1549 1549 1550 1551 1552 1554 1555 1557 1559 1561 1562 1564 1565 1567 1568 1569 1570 1570 1571 1572 1573 1574 1574 1574 1575 1576 1577 1578 1580 1580 1581 1582 1582 1583 1583 1584 1584 1584 1584 1585 1585
1497 1500 1502 1504 1505 1504 1504 1505 1505 1506 1507 1507 1507 1508 1509 1510 1510 1511 1512 1515 1518 1521 1523 1525 1527 1528 1530 1532 1533 1535 1537 1538 1540 1541 1542 1543 1543 1544 1544 1544 1545 1546 1547 1548 1548 1549 1550 1551 1553 1554 1555 1557 1559 1560 1562 1563 1565 1566 1567 1568 1569 1569 1569 1570 1572 1573 1574 1574 1574 1575 1576 1577 1578 1578 1579 1580 1580 1581 1581 1581 1582 1582 1582 1582 1582
1493 1496 1498 1500 1501 1501 1502 1504 1504 1505 1507 1507 1508 1508 1508 1510 1511 1511 1512 1515 1517 1520 1522 1525 1526 1528 1530 1532 1533 1535 1536 1538 1539 1541 1541 1542 1544 1544 1545 1545 1546 1546 1547 1548 1549 1549 1550 1552 1553 1554 1555 1557 1559 1560 1561 1563 1564 1565 1566 1566 1567 1568 1568 1569 1571 1572 1573 1574 1574 1575 1575 1577 1577 1577 1577 1578 1579 1579 1580 1580 1580 1580 1580 1580 1579
1491 1493 1495 1496 1498 1499 1501 1503 1504 1505 1506 1507 1508 1507 1508 1509 1510 1511 1513 1515 1518 1520 1522 1524 1526 1528 1530 1532 1533 1534 1536 1538 1539 1540 1541 1542 1543 1544 1545 1545 1545 1546 1547 1548 1549 1550 1551 1552 1553 1554 1555 1556 1558 1559 1560 1562 1563 1564 1565 1565 1566 1567 1567 1568 1570 1571 1572 1574 1574 1574 1575 1576 1577 1577 1577 1577 1578 1578 1578 1578 1578 1578 1578 1578 1577
1490 1492 1493 1495 1496 1497 1499 1502 1503 1504 1505 1507 1507 1507 1507 1508 1509 1512 1514 1515 1518 1520 1521 1523 1525 1528 1530 1531 1533 1534 1535 1537 1539 1540 1541 1542 1543 1544 1545 1545 1545 1546 1547 1548 1549 1550 1551 1552 1553 1553 1555 1556 1557 1558 1560 1562 1562 1563 1564 1565 1565 1566 1567 1568 1569 1570 1571 1572 1573 1574 1574 1575 1575 1576 1577 1576 1576 1576 1576 1577 1577 1576 1576 1575 1575
1489 1491 1492 1492 1494 1495 1497 1500 1502 1503 1505 1507 1507 1507 1507 1507 1509 1512 1514 1516 1518 1519 1521 1523 1525 1528 1530 1531 1533 1533 1534 1536 1538 1539 1541 1542 1543 1544 1545 1545 1546 1547 1547 1548 1549 1550 1551 1552 1553 1554 1555 1556 1557 1558 1559 1561 1561 1562 1563 1564 1565 1565 1566 1567 1568 1569 1570 1571 1571 1572 1573 1574 1574 1575 1576 1575 1575 1575 1575 1575 1574 1574 1574 1573 1573
1488 1489 1490 1490 1491 1493 1496 1498 1499 1502 1505 1507 1507 1507 1506 1507 1509 1511 1513 1515 1517 1518 1520 1523 1525 1527 1529 1531 1532 1533 1534 1535 1537 1539 1540 1542 1543 1544 1544 1545 1546 1547 1548 1548 1549 1550 1551 1552 1553 1554 1555 1556 1556 1558 1559 1560 1561 1561 1562 1564 1564 1564 1565 1566 1566 1567 1568 1569 1570 1571 1571 1572 1573 1573 1573 1574 1574 1574 1573 1573 1572 1572 1572 1571 1571
1485 1486 1487 1488 1489 1491 1495 1497 1497 1498 1503 1505 1506 1505 1505 1507 1509 1511 1512 1514 1515 1518 1520 1522 1524 1526 1528 1530 1531 1533 1534 1535 1537 1538 1540 1541 1542 1543 1544 1545 1546 1547 1547 1548 1549 1550 1550 1551 1552 1553 1554 1555 1556 1557 1558 1559 1560 1560 1561 1562 1563 1564 1564 1565 1566 1566 1567 1568 1569 1569 1570 1570 1571 1571 1571 1571 1571 1571 1571 1571 1570 1570 1569 1568 1568
1483 1483 1484 1486 1486 1488 1492 1494 1495 1497 1500 1503 1504 1503 1504 1505 1507 1509 1510 1512 1514 1517 1519 1522 1524 1526 1528 1529 1531 1532 1533 1535 1536 1538 1540 1541 1542 1543 1544 1545 1546 1546 1546 1547 1548 1549 1549 1550 1551 1552 1553 1554 1555 1556 1557 1557 1558 1559 1560 1561 1561 1562 1563 1564 1564 1565 1566 1567 1567 1568 1568 1569 1569 1569 1569 1569 1569 1569 1568 1568 1568 1567 1566 1566 1565
1483 1482 1482 1483 1484 1486 1488 1491 1493 1496 1497 1499 1502 1503 1503 1503 1505 1507 1509 1511 1514 1516 1519 1521 1523 1525 1527 1529 1530 1531 1532 1533 1535 1537 1539 1540 1541 1542 1544 1544 1545 1545 1546 1546 1548 1548 1549 1550 1551 1552 1553 1554 1555 1555 1556 1557 1557 1558 1559 1559 1560 1560 1561 1561 1562 1563 1564 1565 1565 1566 1566 1566 1567 1567 1567 1566 1566 1566 1566 1566 1565 1565 1564 1563 1563
1484 1483 1482 1482 1483 1485 1486 1487 1490 1492 1493 1496 1499 1502 1502 1502 1504 1507 1508 1511 1514 1516 1519 1521 1522 1525 1527 1528 1530 1530 1531 1532 1534 1536 1538 1539 1541 1542 1543 1544 1544 1544 1545 1546 1547 1548 1549 1550 1551 1551 1552 1553 1554 1555 1556 1556 1557 1558 1558 1559 1559 1559 1560 1560 1561 1562 1562 1563 1563 1564 1564 1564 1564 1564 1564 1564 1564 1564 1563 1563 1562 1562 1561 1560 1559
1487 1486 1484 1482 1482 1484 1485 1485 1487 1489 1491 1494 1497 1500 1501 1502 1503 1506 1508 1511 1513 1516 1518 1520 1522 1524 1526 1527 1529 1530 1530 1531 1533 1534 1536 1538 1539 1541 1542 1542 1543 1543 1544 1546 1547 1548 1549 1550 1550 1551 1552 1552 1553 1554 1555 1556 1556 1557 1558 1558 1558 1558 1559 1559 1560 1560 1560 1561 1561 1561 1561 1561 1562 1561 1561 1561 1561 1561 1560 1559 1559 1559 1557 1556 1555
1490 1490 1489 1486 1483 1483 1484 1484 1486 1487 1489 1492 1495 1498 1500 1501 1502 1505 1507 1510 1513 1515 1518 1520 1522 1524 1525 1527 1528 1529 1530 1531 1532 1534 1535 1537 1538 1539 1540 1540 1541 1542 1544 1545 1546 1547 1548 1549 1550 1550 1551 1552 1553 1553 1554 1554 1555 1556 1556 1556 1556 1557 1557 1557 1557 1558 1558 1558 1558 1558 1558 1558 1558 1558 1558 1558 1558 1557 1556 1555 1555 1556 1554 1551 1550
1493 1492 1492 1491 1487 1486 1486 1487 1487 1488 1488 1491 1495 1498 1500 1501 1503 1505 1508 1510 1513 1515 1518 1519 1521 1523 1525 1526 1527 1528 1529 1530 1532 1534 1535 1536 1537 1538 1538 1539 1540 1542 1543 1544 1545 1546 1546 1547 1548 1549 1550 1551 1552 1552 1553 1553 1554 1554 1554 1555 1555 1555 1555 1555 1555 1556 1556 1555 1555 1555 1555 1555 1555 1554 1555 1555 1554 1554 1552 1551 1551 1551 1549 1547 1546
1497 1495 1495 1494 1493 1492 1493 1493 1491 1489 1489 1493 1496 1498 1501 1503 1504 1506 1508 1510 1513 1515 1518 1519 1521 1522 1524 1526 1526 1527 1528 1530 1532 1533 1534 1536 1537 1537 1537 1538 1539 1540 1541 1542 1543 1544 1545 1545 1546 1547 1548 1549 1550 1551 1551 1551 1552 1552 1552 1552 1552 1552 1553 1553 1553 1553 1553 1553 1553 1552 1552 1552 1552 1551 1551 1551 1551 1550 1549 1547 1547 1546 1544 1543 1542
1501 1500 1498 1497 1497 1497 1498 1499 1496 1491 1491 1496 1498 1499 1502 1503 1504 1506 1509 1511 1513 1515 1517 1519 1521 1522 1523 1525 1525 1526 1527 1529 1530 1532 1533 1535 1536 1537 1537 1537 1537 1539 1540 1540 1541 1542 1543 1544 1545 1546 1547 1547 1548 1549 1549 1549 1549 1549 1550 1550 1550 1550 1550 1550 1549 1549 1549 1549 1549 1548 1548 1548 1547 1547 1546 1546 1546 1546 1545 1544 1543 1542 1540 1539 1538
1505 1503 1501 1500 1500 1499 1499 1501 1499 1494 1495 1499 1501 1502 1504 1505 1505 1508 1510 1511 1514 1516 1518 1520 1521 1522 1523 1524 1524 1525 1526 1528 1529 1531 1532 1534 1535 1536 1536 1536 1536 1537 1538 1539 1540 1541 1542 1543 1543 1544 1545 1545 1546 1546 1547 1547 1547 1547 1547 1547 1547 1547 1547 1546 1546 1545 1545 1545 1545 1544 1544 1543 1543 1542 1541 1541 1541 1540 1540 1539 1538 1537 1536 1535 1533
1507 1506 1504 1503 1502 1501 1501 1501 1500 1499 1501 1503 1504 1505 1506 1507 1507 1509 1511 1513 1515 1517 1519 1521 1521 1522 1522 1523 1524 1524 1525 1527 1528 1529 1531 1532 1533 1535 1535 1535 1535 1536 1537 1538 1539 1540 1540 1541 1542 1543 1543 1543 1543 1544 1544 1544 1544 1543 1543 1543 1544 1544 1543 1543 1543 1542 1542 1541 1541 1540 1540 1539 1538 1538 1537 1537 1536 1535 1534 1534 1533 1532 1531 1530 1529
1510 1508 1507 1506 1505 1504 1504 1504 1504 1505 1506 1507 1507 1507 1508 1508 1509 1510 1513 1516 1518 1519 1521 1522 1522 1521 1522 1523 1523 1524 1524 1525 1527 1528 1529 1530 1531 1532 1533 1534 1534 1534 1535 1537 1538 1539 1539 1539 1539 1540 1541 1541 1541 1541 1541 1541 1541 1541 1541 1541 1541 1541 1540 1540 1539 1539 1539 1538 1538 1537 1536 1535 1535 1534 1533 1532 1531 1530 1530 1530 1529 1528 1527 1526 1525
1513 1511 1511 1510 1509 1508 1508 1508 1508 1509 1510 1511 1511 1511 1511 1512 1513 1515 1517 1518 1520 1521 1522 1523 1523 1522 1523 1523 1524 1524 1524 1525 1526 1526 1527 1528 1529 1530 1531 1532 1533 1533 1534 1535 1536 1537 1537 1538 1538 1538 1538 1538 1538 1538 1538 1539 1538 1538 1538 1538 1538 1538 1537 1537 1537 1536 1536 1535 1534 1534 1533 1532 1532 1531 1530 1529 1528 1528 1527 1527 1526 1526 1524 1523 1521
1516 1515 1515 1514 1513 1512 1511 1511 1512 1512 1513 1514 1514 1514 1515 1516 1517 1518 1520 1520 1521 1522 1523 1524 1524 1524 1523 1523 1524 1525 1525 1525 1525 1526 1526 1527 1528 1529 1530 1531 1532 1532 1532 1533 1533 1534 1535 1536 1536 1536 1536 1536 1536 1536 1536 1536 1536 1536 1536 1536 1536 1535 1535 1535 1534 1533 1533 1532 1531 1531 1531 1530 1530 1529 1528 1527 1526 1525 1524 1523 1523 1522 1521 1520 1518
1520 1519 1518 1518 1517 1516 1515 1514 1515 1515 1515 1516 1516 1517 1518 1518 1519 1520 1521 1522 1522 1523 1524 1525 1525 1524 1524 1524 1524 1525 1526 1526 1526 1526 1526 1527 1527 1528 1529 1529 1530 1530 1531 1531 1532 1532 1533 1533 1534 1534 1534 1534 1534 1534 1534 1534 1534 1534 1534 1534 1533 1533 1533 1532 1531 1531 1530 1530 1530 1529 1529 1528 1528 1527 1526 1525 1523 1522 1521 1519 1519 1518 1517 1516 1514
1523 1523 1522 1521 1521 1520 1519 1519 1518 1518 1518 1518 1518 1519 1519 1520 1521 1522 1522 1523 1523 1523 1524 1526 1526 1525 1525 1525 1525 1526 1526 1527 1527 1526 1526 1527 1527 1527 1528 1528 1529 1529 1530 1530 1531 1531 1531 1532 1532 1532 1532 1532 1532 1533 1533 1533 1533 1533 1533 1532 1532 1532 1531 1531 1530 1529 1528 1528 1528 1527 1526 1525 1524 1524 1522 1521 1520 1519 1518 1516 1515 1514 1513 1512 1510
1526 1526 1526 1525 1524 1523 1523 1523 1523 1522 1522 1522 1522 1521 1521 1522 1522 1523 1524 1524 1524 1524 1525 1526 1526 1526 1526 1526 1526 1526 1526 1527 1527 1527 1527 1527 1527 1527 1527 1528 1528 1528 1529 1529 1530 1530 1531 1531 1531 1531 1531 1531 1531 1532 1532 1532 1532 1531 1531 1531 1531 1530 1530 1529 1528 1528 1527 1526 1525 1524 1523 1522 1521 1520 1519 1518 1517 1516 1514 1513 1512 1511 1510 1508 1507
1529 1528 1528 1528 1527 1526 1526 1526 1526 1526 1526 1525 1525 1524 1524 1524 1524 1524 1525 1525 1525 1526 1526 1526 1526 1526 1526 1526 1526 1527 1527 1527 1527 1527 1527 1527 1527 1527 1527 1527 1528 1528 1528 1529 1529 1530 1530 1530 1530 1530 1530 1530 1530 1530 1530 1530 1530 1530 1529 1529 1528 1528 1527 1527 1526 1526 1525 1524 1523 1522 1521 1520 1519 1517 1516 1515 1514 1513 1511 1509 1508 1506 1506 1505 1503
1531 1530 1530 1529 1529 1529 1528 1528 1528 1528 1528 1527 1527 1526 1526 1525 1525 1525 1525 1525 1525 1526 1525 1525 1526 1526 1526 1526 1526 1527 1527 1527 1527 1527 1527 1527 1527 1527 1527 1527 1527 1527 1528 1528 1528 1529 1529 1529 1529 1529 1529 1529 1529 1529 1529 1528 1528 1528 1527 1527 1526 1526 1525 1525 1524 1524 1523 1522 1521 1520 1519 1517 1516 1514 1513 1511 1510 1508 1507 1505 1503 1502 1501 1500 1500
1532 1532 1531 1531 1531 1530 1530 1530 1529 1529 1529 1528 1528 1528 1527 1527 1526 1526 1525 1525 1525 1525 1525 1525 1525 1525 1526 1526 1526 1527 1527 1527 1527 1527 1527 1527 1527 1527 1527 1527 1527 1527 1527 1527 1527 1528 1528 1528 1528 1528 1528 1528 1528 1528 1527 1527 1526 1526 1525 1525 1524 1524 1524 1524 1523 1522 1522 1521 1520 1518 1517 1515 1514 1512 1510 1509 1507 1505 1504 1502 1500 1498 1497 1496 1496
1533 1533 1533 1532 1531 1531 1531 1531 1530 1530 1529 1529 1529 1529 1529 1528 1527 1527 1527 1526 1526 1526 1526 1526 1525 1526 1526 1526 1526 1527 1527 1527 1528 1527 1527 1527 1527 1527 1527 1527 1527 1527 1527 1527 1527 1527 1527 1527 1527 1527 1527 1527 1527 1527 1527 1526 1525 1524 1524 1523 1523 1523 1523 1522 1522 1521 1520 1519 1518 1517 1515 1514 1512 1511 1509 1507 1505 1503 1501 1499 1497 1496 1495 1494 1494
1533 1533 1533 1532 1532 1531 1531 1532 1531 1531 1530 1530 1530 1530 1530 1529 1528 1528 1528 1528 1527 1527 1527 1526 1526 1526 1526 1526 1527 1527 1527 1527 1527 1527 1528 1528 1527 1527 1527 1527 1526 1526 1526 1527 1527 1527 1527 1527 1527 1527 1527 1527 1526 1526 1525 1524 1524 1523 1523 1523 1522 1522 1522 1522 1521 1520 1519 1518 1517 1516 1514 1513 1511 1510 1508 1506 1504 1501 1499 1497 1496 1495 1494 1493 1492
1534 1534 1533 1533 1532 1532 1532 1532 1532 1532 1532 1531 1531 1531 1530 1530 1529 1529 1528 1528 1528 1528 1527 1527 1526 1526 1526 1526 1526 1527 1527 1527 1527 1527 1528 1527 1527 1527 1526 1525 1525 1526 1526 1526 1527 1527 1527 1527 1527 1527 1526 1526 1525 1524 1524 1523 1523 1522 1522 1522 1522 1522 1522 1521 1520 1519 1518 1517 1516 1515 1514 1512 1511 1509 1507 1505 1503 1501 1499 1497 1496 1495 1494 1493 1492
1534 1534 1533 1533 1533 1533 1533 1533 1532 1532 1532 1532 1531 1531 1531 1530 1530 1529 1529 1529 1528 1528 1528 1527 1527 1527 1526 1526 1526 1527 1527 1527 1527 1527 1527 1527 1527 1526 1526 1525 1526 1526 1526 1526 1526 1526 1526 1526 1526 1526 1526 1525 1524 1523 1523 1523 1522 1522 1522 1522 1521 1521 1521 1521 1520 1519 1518 1517 1516 1514 1513 1512 1510 1508 1507 1505 1503 1501 1500 1499 1497 1496 1495 1494 1492
1535 1534 1534 1534 1534 1534 1533 1533 1533 1532 1532 1532 1532 1532 1531 1531 1530 1530 1529 1529 1529 1529 1528 1528 1528 1528 1527 1527 1527 1526 1526 1527 1527 1527 1527 1527 1526 1526 1526 1525 1526 1526 1526 1526 1526 1526 1526 1526 1526 1526 1525 1524 1523 1523 1523 1523 1522 1522 1522 1522 1521 1521 1521 1521 1520 1519 1518 1516 1515 1514 1512 1511 1510 1508 1507 1505 1504 1502 1501 1500 1499 1498 1496 1495 1493
1535 1535 1534 1534 1534 1534 1534 1533 1533 1533 1532 1533 1533 1532 1532 1531 1531 1530 1530 1530 1529 1529 1529 1528 1529 1529 1528 1527 1527 1526 1526 1526 1527 1527 1527 1527 1526 1526 1526 1525 1525 1526 1526 1526 1525 1525 1525 1525 1525 1525 1524 1524 1523 1523 1523 1523 1522 1522 1522 1522 1522 1522 1521 1520 1519 1518 1517 1516 1515 1514 1512 1511 1510 1509 1507 1506 1505 1504 1503 1502 1500 1499 1497 1496 1494
1535 1535 1534 1534 1534 1534 1534 1534 1534 1533 1533 1533 1533 1533 1532 1532 1532 1532 1532 1531 1530 1530 1529 1529 1530 1530 1529 1528 1528 1527 1527 1526 1526 1526 1527 1526 1526 1526 1526 1525 1525 1525 1525 1525 1525 1525 1525 1524 1524 1524 1524 1523 1523 1523 1523 1523 1523 1523 1523 1523 1522 1522 1521 1520 1520 1519 1518 1517 1516 1515 1513 1512 1511 1510 1508 1507 1506 1505 1504 1502 1501 1500 1498 1497 1495
1534 1535 1534 1534 1534 1534 1534 1534 1534 1533 1533 1534 1533 1533 1533 1532 1532 1532 1533 1532 1532 1531 1531 1530 1530 1530 1530 1529 1529 1528 1527 1526 1526 1526 1525 1525 1525 1525 1524 1524 1524 1524 1524 1524 1524 1524 1524 1524 1524 1524 1523 1523 1523 1523 1523 1523 1523 1523 1523 1522 1522 1522 1522 1521 1520 1520 1519 1518 1517 1516 1515 1514 1513 1511 1510 1509 1507 1506 1504 1503 1502 1501 1499 1498 1497
1534 1534 1534 1534 1533 1534 1534 1534 1534 1534 1533 1533 1533 1533 1533 1533 1533 1533 1533 1533 1532 1532 1531 1531 1530 1529 1529 1529 1529 1528 1527 1526 1526 1525 1524 1524 1524 1524 1523 1523 1523 1523 1523 1523 1523 1523 1524 1524 1523 1523 1523 1523 1523 1523 1523 1523 1523 1523 1523 1523 1523 1523 1522 1522 1521 1521 1520 1519 1518 1517 1516 1515 1514 1513 1512 1510 1509 1507 1505 1504 1503 1502 1501 1500 1499
1533 1534 1534 1534 1533 1534 1534 1534 1534 1533 1533 1533 1533 1533 1533 1533 1533 1533 1533 1532 1532 1531 1531 1530 1530 1529 1529 1529 1528 1528 1527 1526 1526 1525 1525 1524 1523 1523 1523 1523 1523 1523 1523 1523 1524 1524 1524 1524 1524 1524 1524 1524 1524 1524 1524 1524 1524 1524 1524 1524 1523 1523 1523 1523 1522 1521 1521 1520 1519 1518 1517 1516 1515 1514 1513 1511 1510 1508 1507 1506 1504 1503 1502 1501 1500
1533 1533 1534 1533 1533 1533 1533 1533 1533 1533 1532 1532 1532 1532 1532 1532 1532 1532 1532 1531 1531 1530 1530 1530 1530 1529 1529 1528 1528 1528 1527 1526 1526 1525 1525 1524 1524 1524 1524 1524 1524 1524 1524 1524 1524 1524 1524 1524 1524 1525 1525 1525 1525 1525 1525 1525 1525 1525 1525 1524 1524 1524 1524 1523 1522 1522 1521 1520 1520 1519 1518 1517 1516 1515 1514 1513 1511 1510 1509 1507 1506 1505 1504 1502 1502
1532 1532 1532 1533 1533 1533 1532 1532 1532 1532 1532 1532 1532 1531 1531 1530 1530 1530 1530 1530 1530 1529 1529 1529 1529 1529 1528 1528 1528 1527 1527 1526 1526 1525 1525 1525 1525 1525 1526 1526 1525 1525 1525 1525 1525 1525 1525 1526 1526 1526 1526 1526 1526 1526 1526 1526 1526 1526 1526 1525 1525 1524 1524 1523 1523 1522 1521 1521 1520 1519 1519 1518 1517 1516 1515 1514 1513 1511 1510 1509 1508 1507 1505 1504 1503
1532 1531 1532 1532 1533 1533 1532 1532 1532 1531 1531 1531 1531 1531 1530 1530 1529 1529 1529 1529 1529 1529 1529 1529 1529 1528 1528 1528 1528 1527 1527 1526 1526 1526 1526 1526 1527 1527 1527 1526 1526 1526 1526 1526 1527 1527 1527 1527 1527 1527 1527 1527 1527 1527 1527 1527 1527 1527 1526 1526 1525 1524 1524 1523 1523 1522 1521 1521 1520 1520 1519 1518 1517 1516 1516 1515 1514 1513 1512 1510 1509 1508 1507 1506 1504
1531 1531 1531 1532 1532 1532 1532 1532 1532 1531 1531 1531 1530 1530 1529 1529 1529 1529 1528 1528 1529 1529 1529 1529 1529 1528 1528 1528 1527 1527 1527 1526 1526 1527 1527 1527 1527 1527 1527 1527 1527 1527 1527 1528 1528 1527 1528 1528 1528 1527 1527 1528 1527 1527 1527 1527 1527 1527 1526 1525 1525 1524 1523 1523 1523 1522 1522 1521 1521 1520 1520 1519 1518 1517 1516 1516 1515 1514 1513 1512 1511 1509 1508 1507 1506
1532 1531 1532 1532 1532 1532 1532 1532 1531 1531 1530 1530 1530 1529 1528 1528 1528 1528 1528 1528 1528 1529 1529 1529 1529 1528 1528 1528 1528 1527 1527 1527 1527 1527 1528 1528 1528 1528 1528 1528 1528 1528 1528 1528 1528 1528 1528 1528 1528 1528 1528 1528 1528 1527 1527 1527 1527 1526 1526 1525 1525 1524 1523 1523 1523 1522 1522 1521 1521 1521 1520 1519 1519 1518 1517 1517 1516 1515 1514 1513 1512 1510 1509 1508 1507
1532 1532 1532 1532 1532 1532 1532 1532 1531 1530 1530 1530 1529 1529 1528 1528 1527 1528 1528 1529 1529 1529 1529 1529 1528 1528 1528 1528 1528 1528 1528 1528 1528 1528 1528 1529 1529 1529 1529 1529 1529 1529 1529 1529 1529 1529 1529 1529 1529 1529 1529 1528 1528 1527 1527 1527 1526 1526 1525 1525 1525 1524 1524 1523 1523 1523 1522 1522 1522 1521 1521 1520 1520 1519 1518 1518 1517 1516 1515 1514 1513 1511 1510 1509 1508
1532 1532 1532 1532 1532 1532 1532 1531 1530 1530 1530 1529 1529 1529 1528 1528 1527 1528 1529 1529 1529 1529 1529 1529 1528 1528 1528 1528 1528 1529 1529 1528 1529 1529 1529 1530 1530 1530 1530 1530 1530 1529 1530 1529 1529 1529 1529 1529 1529 1528 1528 1528 1528 1527 1527 1526 1526 1526 1525 1525 1525 1524 1524 1524 1523 1523 1523 1523 1522 1522 1521 1521 1520 1520 1519 1518 1517 1517 1516 1515 1513 1512 1511 1510 1509
1532 1532 1532 1532 1532 1532 1532 1531 1530 1530 1530 1529 1529 1528 1528 1527 1527 1528 1528 1529 1529 1529 1529 1529 1529 1529 1529 1529 1529 1529 1529 1529 1529 1530 1530 1530 1531 1531 1531 1531 1530 1530 1530 1530 1530 1529 1529 1529 1528 1528 1528 1527 1527 1527 1526 1526 1526 1525 1525 1525 1525 1524 1524 1524 1524 1524 1524 1523 1523 1523 1522 1521 1521 1520 1519 1519 1518 1517 1516 1515 1514 1513 1512 1511 1511
1532 1532 1532 1531 1532 1532 1532 1531 1530 1530 1530 1529 1529 1528 1528 1527 1527 1527 1527 1528 1528 1528 1529 1529 1529 1529 1529 1529 1529 1529 1529 1530 1530 1530 1530 1530 1531 1531 1531 1531 1531 1530 1530 1530 1529 1529 1529 1528 1528 1528 1527 1527 1527 1526 1526 1526 1526 1525 1525 1525 1525 1525 1525 1525 1524 1524 1524 1524 1524 1523 1522 1522 1521 1521 1520 1519 1518 1517 1516 1515 1514 1513 1513 1512 1511
1531 1531 1530 1530 1531 1531 1531 1530 1530 1530 1529 1529 1528 1528 1527 1527 1527 1527 1527 1527 1528 1528 1529 1529 1529 1529 1529 1529 1529 1529 1530 1530 1531 1531 1531 1531 1531 1531 1531 1531 1530 1530 1530 1529 1529 1529 1528 1528 1528 1528 1527 1527 1527 1526 1526 1526 1526 1526 1526 1526 1526 1526 1525 1525 1525 1525 1525 1524 1524 1523 1523 1522 1522 1521 1520 1519 1518 1517 1516 1516 1515 1514 1513 1513 1512